Location: Grand Moustoir
(47.8355°N, 3.3120°W)
Time: 18:46:23
(UTC+00:00)

Cosmos 2056 Rocket - Pass Details

Date: 20 January 2020
Orbit: 741 x 801 km, 74.0° (Epoch: 24 February)

Event Time Altitude Azimuth Distance (km) Brightness Sun altitude
Exits shadow 06:45:51 - 337° (NNW) 3,130 6.3 -11.3°
Reaches altitude 10° 06:47:47 10° 337° (NNW) 2,382 5.7 -11.0°
Maximum altitude 06:53:14 89° 254° (WSW) 809 3.6 -10.2°
Drops below altitude 10° 06:58:40 10° 160° (SSE) 2,370 6.6 -9.3°
Sets 07:01:03 0° 160° (SSE) 3,293 7.4 -8.9°
